Location: Bon Acre
(42.6442°N, 73.5758°W)
Time: 03:06:15
(UTC+00:00)

BREEZE-M DEB (TANK) - Pass Details

Date: 14 December 2025
Orbit: 604 x 17108 km, 49.5° (Epoch: 23 January)

Event Time Altitude Azimuth Distance (km) Brightness Sun altitude
Rises 23:11:34 0° 228° (SW) 6,666 9.4 -19.5°
Reaches altitude 10° 23:17:20 10° 226° (SW) 4,175 8.1 -20.5°
Maximum altitude 23:25:17 60° 148° (SSE) 946 3.8 -21.9°
Enters shadow 23:26:09 50° 103° (ESE) 971 3.6 -22.1°
